User: anonymous   Login
Location: Unspecified
(0.0000°N, 0.0000°E)
Time: 00:11:37
(UTC+00:00)
Language:

Kopernikus 3 - Orbit

View from above orbital plane
View from above orbital plane
View from above satellite
View from above satellite

Ground track
Ground track

The orbit data is extracted from the following two-line orbital elements,

1 22175U 92066A   18112.39490586 +.00000081 +00000-0 +00000-0 0  9996
2 22175 012.4613 029.8658 0005023 317.8687 039.6607 00.99729652090845
Epoch (UTC): 22 April 2018 09:28:39
Eccentricity: 0.0005023
inclination: 12.4613°
perigee height: 35917 km
apogee height: 35960 km
right ascension of ascending node: 29.8658°
argument of perigee: 317.8687°
revolutions per day: 0.99729652
mean anomaly at epoch: 39.6607°
orbit number at epoch: 9084

The dashed part of the orbit path shows where the satellite is in the earth's shadow,  

DLR